Weather History for Wolf Point, MT

Change the Weather History Date:

Sunday, November 18, 2012

  Actual Average Record
Temperature  
Mean Temperature 31 °F -  
Max Temperature 40 °F 39 °F 61 °F (2008)
Min Temperature 21 °F 14 °F -7 °F (2014)
Degree Days  
Heating Degree Days 34    
Cooling Degree Days 0    
Moisture  
Dew Point 26 °F    
Average Humidity 85    
Maximum Humidity 92    
Minimum Humidity 76    
Precipitation  
Precipitation 0.00 in 0.01 in 0.06 in (1999)
Month to date precipitation 0.27 0.27  
Year to date precipitation 10.14 11.76  
Sea Level Pressure  
Sea Level Pressure 29.89 in    
Wind  
Wind Speed 6 mph (ESE)    
Max Wind Speed 10 mph    
Max Gust Speed -    
Visibility 10 miles    
Events      
T = Trace of Precipitation, MM = Missing Value Source: NWS Daily Summary

Daily Weather History Graph

Daily Weather History Graph

Search for Another Location

Airport:

Trip Planner

Search our weather history database for the weather conditions in past years. The results will help you decide how hot, cold, wet, or windy it might be!

Date:

Astronomy

Nov. 18, 2012 Rise Set
Actual Time 7:14 AM MST 4:20 PM MST
Civil Twilight 6:39 AM MST 4:54 PM MST
Nautical Twilight 6:01 AM MST 5:32 PM MST
Astronomical Twilight 5:24 AM MST 6:09 PM MST
Moon 11:37 AM MST (11/18) 9:50 PM MST (11/18)
Length of Visible Light 10h 14m
Length of Day
9h 06m
Waxing Crescent, 31% of the Moon is Illuminated
Nov 18
Waxing Crescent
Nov 20
First Quarter
Nov 28
Full
Dec 6
Last Quarter
Dec 13
New

Hourly Weather History & Observations

Time (MST) Temp. Windchill Dew Point Humidity Pressure Visibility Wind Dir Wind Speed Gust Speed Precip Events Conditions
12:53 AM 23.0 °F 15.8 °F 19.9 °F 88% 29.89 in 7.0 mi East 5.8 mph - N/A   Clear
1:53 AM 25.0 °F 16.3 °F 21.9 °F 88% 29.86 in 8.0 mi East 8.1 mph - N/A   Clear
2:53 AM 23.0 °F 15.8 °F 21.0 °F 92% 29.84 in 7.0 mi East 5.8 mph - N/A   Clear
3:53 AM 24.1 °F 17.0 °F 21.9 °F 91% 29.82 in 9.0 mi East 5.8 mph - N/A   Clear
4:53 AM 24.1 °F 15.2 °F 21.9 °F 91% 29.82 in 9.0 mi East 8.1 mph - N/A   Clear
5:53 AM 23.0 °F 17.0 °F 19.9 °F 88% 29.82 in 9.0 mi ENE 4.6 mph - N/A   Clear
6:53 AM 24.1 °F 16.0 °F 21.0 °F 88% 29.81 in 10.0 mi East 6.9 mph - N/A   Clear
7:53 AM 25.0 °F 16.3 °F 21.9 °F 88% 29.81 in 10.0 mi East 8.1 mph - N/A   Clear
8:53 AM 28.9 °F 22.8 °F 25.0 °F 85% 29.80 in 10.0 mi East 5.8 mph - N/A   Clear
9:53 AM 33.1 °F 26.9 °F 28.0 °F 82% 29.81 in 10.0 mi East 6.9 mph - N/A   Clear
10:53 AM 36.0 °F 32.1 °F 30.0 °F 79% 29.81 in 10.0 mi ENE 4.6 mph - N/A   Clear
11:53 AM 37.0 °F 33.3 °F 30.9 °F 79% 29.80 in 10.0 mi East 4.6 mph - N/A   Partly Cloudy
12:53 PM 37.0 °F - 32.0 °F 82% 29.82 in 10.0 mi Calm Calm - N/A   Overcast
1:53 PM 39.0 °F - 32.0 °F 76% 29.82 in 10.0 mi Calm Calm - N/A   Overcast
2:53 PM 39.0 °F 36.8 °F 32.0 °F 76% 29.86 in 10.0 mi WSW 3.5 mph - N/A   Partly Cloudy
3:53 PM 37.9 °F 33.5 °F 30.9 °F 76% 29.91 in 10.0 mi SSW 5.8 mph - N/A   Clear
4:53 PM 36.0 °F - 30.9 °F 82% 29.94 in 10.0 mi Calm Calm - N/A   Clear
5:53 PM 36.0 °F 32.1 °F 30.9 °F 82% 29.96 in 10.0 mi SW 4.6 mph - N/A   Clear
6:53 PM 33.1 °F 26.9 °F 28.9 °F 85% 29.99 in 10.0 mi WSW 6.9 mph - N/A   Clear
7:53 PM 30.9 °F 26.2 °F 27.0 °F 85% 30.01 in 10.0 mi Variable 4.6 mph - N/A   Clear
8:53 PM 30.0 °F 21.1 °F 27.0 °F 88% 30.04 in 10.0 mi West 10.4 mph - N/A   Clear
9:53 PM 27.0 °F 19.5 °F 24.1 °F 89% 30.06 in 10.0 mi WSW 6.9 mph - N/A   Clear
10:53 PM 24.1 °F 16.0 °F 21.0 °F 88% 30.08 in 10.0 mi WSW 6.9 mph - N/A   Clear
11:53 PM 25.0 °F - 21.0 °F 85% 30.08 in 10.0 mi Calm Calm - N/A   Clear